Regional Weather Roundup
Issued by NWS

Home | Current Version | Previous Version | Text Only | Print | Product List | Glossary Off
Versions: 1 2 3 4 5 6 7 8 9 10 11 12 13 14 15 16 17 18 19 20 21 22 23 24 25 26 27 28 29 30 31 32 33 34 35 36 37 38 39 40 41 42 43 44 45 46 47 48 49 50

000
ASUS43 KLMK 291310
RWRKY
KENTUCKY REGIONAL WEATHER ROUNDUP
NATIONAL WEATHER SERVICE LOUISVILLE KY
900 AM EDT FRI AUG 29 2014

NOTE "FAIR" INDICATES FEW OR NO CLOUDS BELOW 12,000 FEET
WITH NO SIGNIFICANT WEATHER AND/OR OBSTRUCTIONS TO VISIBILITY.

KYZ001>023-026-027-061>063-070>075-291400-
WESTERN AND SOUTH CENTRAL KENTUCKY

CITY           SKY/WX    TMP DP  RH WIND       PRES   REMARKS
PADUCAH        SUNNY     76  72  87 S7        29.98S FOG
HENDERSON      SUNNY     73  70  88 SE5       30.00S
OWENSBORO      MOSUNNY  N/A N/A N/A SE8       30.01S
HOPKINSVILLE   SUNNY     76  74  95 SE6       30.01S
BOWLING GREEN  SUNNY     75  72  90 CALM      30.04S
GLASGOW        SUNNY     75  72  92 CALM      30.05S
$$

KYZ024-025-028>034-038-045-046-053-291400-
NORTH CENTRAL KENTUCKY

CITY           SKY/WX    TMP DP  RH WIND       PRES   REMARKS
LOUISVILLE/SDF PTSUNNY   76  67  73 SE7       30.05S
LOUISVILLE/LOU PTSUNNY   74  66  76 E5        30.06S
FORT KNOX      MOSUNNY   74  73  98 E8        30.04S
$$

KYZ035>037-039>044-047>052-055>060-089>105-291400-
NORTHEAST KENTUCKY

CITY           SKY/WX    TMP DP  RH WIND       PRES   REMARKS
LEXINGTON      MOSUNNY   75  64  68 E5        30.09S
COVINGTON      MOSUNNY   70  60  70 SE6       30.10R
FRANKFORT      SUNNY     71  64  78 E8        30.08R
$$

KYZ054-064>069-076>088-106>120-291400-
SOUTHEAST KENTUCKY

CITY           SKY/WX    TMP DP  RH WIND       PRES   REMARKS
JACKSON        SUNNY     70  63  78 CALM      30.12R
LONDON         SUNNY     74  68  81 CALM      30.11R
SOMERSET       SUNNY     72  70  94 CALM      30.10S
MIDDLESBORO    CLOUDY    69  69 100 CALM      30.12S FOG
MONTICELLO     SUNNY     77  72  84 CALM      30.10R HAZE
$$



USA.gov is the U.S. government's official web portal to all federal, state and local government web resources and services.